Back to catalog

FENGYUN 1C DEB

AlivePO
NORAD 33682·DEBRIS·🇨🇳 China

Launched May 10, 1999 from Taiyuan Satellite Launch Center

Loading…

Next Passes (next 24 hours)

TLE

FreshSource: Space-Track

Epoch: Sep 14, 2026, 03:29 UTC

1 33682U 99025DFT 26257.14538548  .00002040  00000-0  83527-3 0  9991
2 33682  99.4040 329.6786 0026496  19.5707 340.6483 14.28239425956274

Track FENGYUN 1C DEB in real time with AllMySat

Download on the App Store